Voltar ao catálogo

STARLINK-5511

AtivoComunicaçõesVLEO
NORAD 57252·PAYLOAD·🇺🇸 United States

Lançado Jul 7, 2023 de Vandenberg Space Force Base

Loading…

Próximas Passagens (próximas 24 horas)

TLE

AtualizadoSource: CelesTrak SupGP

Época: Sep 14, 2026, 22:09 UTC

1 57252C 23094AL  26257.92340278  .00016669  00000+0  60359-3 0  2576
2 57252  43.0014  30.8268 0002321 266.7840 147.0182 15.27576325    10

Acompanhe STARLINK-5511 em tempo real com AllMySat

Download on the App Store